Volver al catálogo

STARLINK-3281

ActivoComunicacionesVLEO
NORAD 50183·PAYLOAD·🇺🇸 United States

Lanzado Dec 18, 2021 desde Vandenberg Space Force Base

Loading…

Próximos Pases (próximas 24 horas)

TLE

ActualizadoSource: CelesTrak SupGP

Época: Sep 15, 2026, 02:41 UTC

1 50183C 21125AD  26258.11229167  .00034767  00000+0  20530-2 0  2586
2 50183  53.1583 117.4892 0002808  95.7970 246.2466 15.11000372    12

Sigue STARLINK-3281 en tiempo real con AllMySat

Download on the App Store